Location: Julian California
(33.0790°N, 116.6010°W)
Time: 22:14:30
(UTC-08:00)

Cosmos 1515 Rocket - Pass Details

Date: 12 July 2018
Orbit: 606 x 630 km, 82.5° (Epoch: 09 December)

Event Time Altitude Azimuth Distance (km) Brightness Sun altitude
Rises 21:45:46 0° 351° (N) 2,922 7.9 -19.4°
Reaches altitude 10° 21:48:01 10° 349° (N) 2,011 7.0 -19.7°
Maximum altitude 21:52:27 73° 265° (W) 658 3.7 -20.3°
Enters shadow 21:54:10 37° 190° (S) 982 4.3 -20.6°
